Presure
336 331 331 338 323 305 315 312 287 267 272 276 258 271 281 290 275 269 235 220 210 230 189 207 180 183 182 177 186 181 177 174 173 180 184 196 208 176 182 176 205 178 174 195
349 336 338 343 333 342 319 328 301 279 273 264 266 280 289 294 274 221 280 227 210 208 191 197 194 193 190 198 183 191 195 192 182 172 196 179 174 174 215 181 185 186 202 181
372 366 347 330 330 338 346 321 299 278 268 281 274 281 281 291 277 249 230 209 227 216 218 201 198 203 199 189 191 176 177 189 187 204 179 203 193 172 171 172 203 206 201 199
299 355 371 366 361 351 355 347 326 291 276 290 265 262 289 282 267 281 280 255 238 225 202 219 208 200 207 193 186 199 194 203 193 178 181 183 174 170 197 202 189 202 204 187
247 241 272 359 345 346 362 351 346 329 295 276 271 276 270 289 272 284 266 268 248 209 220 223 218 208 199 199 204 198 175 196 199 190 203 192 189 183 193 203 172 198 202 183
241 241 273 235 253 268 368 375 379 354 288 288 282 268 274 271 292 288 310 302 250 245 215 215 219 223 215 207 198 204 204 198 184 185 187 188 190 192 205 189 195 200 200 184
227 231 240 261 232 242 242 233 342 405 342 276 275 291 274 251 274 257 290 295 229 299 300 256 223 218 222 210 211 220 206 198 201 196 198 202 207 195 199 193 197 198 196 191
227 214 208 230 221 237 233 235 249 237 235 348 274 266 261 265 259 258 258 260 259 259 274 272 261 235 219 214 213 214 212 212 212 211 204 196 192 192 199 189 185 195 194 187
136 243 234 217 238 237 223 248 244 217 240 235 251 241 265 279 326 304 271 259 271 277 270 218 279 221 275 248 250 213 218 214 206 193 176 209 197 193 191 192 198 198 188 188
148 207 211 192 182 223 201 210 232 207 238 244 231 235 244 238 220 233 251 262 292 365 445 454 323 335 305 300 240 284 262 248 265 218 217 204 210 201 199 194 196 203 198 198
169 193 209 207 178 210 223 212 220 192 216 222 217 222 224 226 242 233 238 247 233 248 264 265 275 374 415 362 296 238 274 264 269 260 241 256 242 216 209 206 209 209 212 205
200 157 177 217 215 170 198 187 188 203 223 211 213 210 226 236 240 233 226 230 219 257 233 229 250 269 322 317 377 398 393 348 329 301 294 291 286 283 249 248 266 255 204 230
171 213 209 243 231 226 169 190 132 240 183 211 187 184 214 227 196 186 217 226 234 225 201 251 229 247 243 300 312 303 306 326 361 354 349 338 327 293 280 288 328 244 238 244
159 181 179 201 226 227 191 218 225 174 150 227 220 220 177 225 213 213 231 206 241 234 249 208 250 270 214 233 252 323 325 325 308 304 319 327 329 313 307 305 311 312 316 321
154 194 194 178 164 162 210 217 211 206 215 177 195 242 183 195 205 226 202 197 238 223 235 259 229 270 244 249 307 327 347 306 324 318 298 313 301 305 304 291 289 288 288 290
196 184 169 165 169 184 195 177 221 196 212 204 232 194 218 230 197 230 215 231 223 229 246 235 258 247 239 250 338 325 323 321 308 312 319 332 319 299 289 300 282 276 276 274
148 156 144 176 182 188 182 163 198 183 198 190 248 211 250 217 226 227 253 245 238 259 243 242 247 239 245 375 357 356 320 319 300 305 302 313 322 323 301 281 281 295 271 267
170 149 144 154 157 192 189 167 183 224 183 184 201 233 248 247 212 209 212 245 220 287 259 246 313 334 382 380 372 355 324 329 311 303 297 292 310 299 332 298 281 277 285 294
164 144 149 153 159 185 164 167 209 212 213 215 215 226 241 198 213 225 212 238 248 269 239 258 415 409 398 387 371 361 345 330 321 319 302 294 294 313 300 329 292 288 276 275
130 154 160 154 163 147 152 163 214 208 169 170 233 228 226 233 233 217 220 220 238 244 311 366 494 480 460 432 412 383 362 344 334 319 307 303 295 294 313 313 320 290 288 273
126 157 133 146 161 150 166 155 219 186 190 226 245 211 207 238 237 219 240 259 247 243 513 502 487 483 481 473 452 438 404 369 343 330 320 311 306 291 307 323 323 298 288 286
202 153 149 143 168 159 151 157 198 203 178 190 237 236 228 225 243 222 253 246 255 262 494 473 459 459 453 464 457 456 428 404 366 336 330 320 307 298 302 313 322 305 288 283
150 178 194 180 152 193 191 168 198 216 191 242 224 231 241 240 225 221 233 242 251 406 456 451 450 455 457 455 456 455 452 411 387 355 333 325 315 307 308 309 321 305 290 280
158 208 141 199 168 166 201 210 157 163 167 244 226 224 215 215 236 249 239 239 252 408 445 445 438 469 494 471 457 466 457 424 383 366 336 324 311 317 321 319 309 308 295 281
145 186 142 147 149 160 159 179 154 242 235 177 257 232 239 256 257 241 239 250 259 444 438 409 425 432 482 494 452 442 444 396 378 360 337 329 317 327 319 320 302 305 296 286
173 158 209 142 160 208 225 167 180 157 241 209 226 224 251 244 257 255 238 252 281 434 438 397 409 408 419 431 425 406 380 367 355 345 336 336 323 319 318 317 299 299 297 290
154 168 161 169 155 183 212 224 223 170 202 256 237 236 230 228 229 267 252 274 387 433 417 392 388 374 373 368 361 352 342 342 341 331 329 323 319 315 310 305 297 295 296 290
Wind_Speed
23 23 23 20 24 19 33 36 48 47 53 56 60 58 56 60 94 114 143 144 142 128 126 136 119 132 130 117 134 129 121 119 117 126 127 112 100 113 119 97 97 113 106 103
25 23 25 26 24 21 30 38 61 56 55 53 54 51 54 66 93 118 74 145 142 139 116 141 132 141 137 139 134 139 139 135 130 109 123 122 116 114 96 116 118 116 104 116
31 21 22 28 26 26 24 38 62 57 50 58 51 55 58 63 86 119 129 110 148 143 149 131 128 142 147 133 135 100 113 136 131 119 118 119 124 104 103 103 110 110 110 112
62 41 32 25 22 23 19 22 54 59 55 63 53 49 60 64 88 77 96 133 149 145 112 148 137 133 140 132 113 133 136 130 134 110 114 125 114 103 122 118 120 115 113 117
70 62 69 34 32 26 24 15 24 58 56 46 41 43 46 56 67 73 107 109 126 114 138 137 149 143 128 128 141 140 98 134 132 128 124 132 127 127 128 122 102 123 122 121
67 66 67 56 63 65 26 22 18 22 22 39 40 32 36 44 52 46 51 53 111 125 126 128 137 146 142 141 121 138 141 141 122 124 128 129 129 130 127 124 128 128 128 123
56 62 60 63 56 54 57 46 33 22 26 17 8 28 24 7 43 18 46 53 54 65 73 127 141 134 139 134 132 143 143 133 143 138 143 137 142 133 136 128 133 134 137 134
55 43 42 54 48 55 49 50 48 44 41 32 10 3 15 27 33 36 40 39 45 41 50 60 75 133 140 135 139 142 142 144 147 148 149 136 135 136 133 133 125 129 135 129
18 47 46 44 49 50 40 47 43 38 41 35 30 21 27 25 11 27 41 44 65 76 66 73 78 106 83 120 131 140 147 148 146 127 100 152 143 135 133 131 139 146 131 129
32 42 43 18 32 41 23 40 39 30 34 27 26 23 19 14 6 9 5 4 6 8 31 44 72 86 97 98 98 88 113 143 113 156 161 148 161 152 151 144 145 158 152 158
14 40 38 38 6 30 32 29 29 5 26 31 22 23 20 14 14 12 11 12 16 17 20 25 27 37 53 73 91 102 97 103 108 125 145 126 139 168 164 156 164 159 168 164
33 28 35 33 35 6 35 3 13 9 35 20 23 13 28 23 24 24 17 19 12 26 24 28 31 34 28 30 51 64 68 90 94 122 125 121 121 126 155 156 134 141 126 163
37 32 32 32 32 32 10 28 8 36 17 28 21 31 18 41 26 34 26 32 24 28 46 37 30 37 38 39 44 50 48 57 73 78 83 92 107 123 116 119 93 152 154 157
31 40 40 32 33 32 36 37 29 29 5 40 28 40 34 36 27 29 49 41 49 44 51 50 51 55 60 48 55 55 55 57 62 67 75 82 84 88 90 89 81 80 77 75
23 29 34 30 34 34 38 37 30 30 43 29 32 42 26 36 30 55 49 44 56 39 61 61 50 69 58 61 67 59 58 58 64 71 75 84 85 86 89 92 89 90 88 84
28 29 26 42 45 45 41 36 42 42 47 50 40 37 42 53 32 52 52 67 62 62 71 61 75 71 67 76 63 63 59 63 65 68 70 69 80 89 91 87 94 93 90 91
17 30 20 44 42 42 51 41 49 53 54 50 55 57 63 63 61 62 72 71 71 74 77 80 78 70 73 64 64 73 62 66 65 71 68 70 72 79 86 93 93 89 96 96
32 22 24 38 39 46 48 47 55 49 40 43 55 59 63 62 49 64 52 80 64 97 89 88 100 77 68 67 69 69 60 65 73 72 72 74 74 79 73 86 93 93 87 84
26 21 27 38 46 41 44 54 55 53 55 56 60 62 67 47 68 73 60 83 90 100 89 101 78 76 74 74 71 70 70 71 70 77 74 75 75 72 79 73 84 87 90 86
33 31 42 33 56 34 42 51 57 58 53 61 64 64 68 69 76 74 76 78 93 97 114 90 68 68 72 76 77 77 74 72 73 73 74 77 76 74 72 71 73 81 82 87
37 25 36 34 55 38 58 53 63 66 65 57 69 75 75 70 81 78 89 98 95 97 47 43 42 38 39 42 44 49 70 75 73 74 75 76 74 73 70 64 68 75 77 78
48 34 35 31 58 52 45 58 62 70 67 72 71 74 77 75 84 78 95 94 97 106 34 34 34 31 33 34 39 43 45 53 70 71 71 72 72 72 69 61 62 68 73 73
30 47 47 54 45 56 59 69 66 73 66 73 72 75 84 82 80 82 91 96 99 60 38 38 36 36 35 33 30 35 40 42 50 66 67 69 65 64 62 57 57 63 70 70
37 61 29 59 61 63 65 73 51 60 64 76 74 79 84 82 91 96 95 91 103 68 37 37 37 33 24 23 25 25 29 38 41 49 63 63 62 57 52 52 54 58 64 68
30 47 30 39 45 59 58 70 57 81 70 74 85 78 90 101 101 93 91 102 106 34 33 38 32 26 17 15 14 16 25 28 28 36 52 53 51 45 45 49 50 52 58 62
46 37 70 37 56 74 80 61 73 55 77 81 82 82 95 99 102 101 91 103 117 30 23 32 24 19 14 8 7 17 18 19 23 31 35 34 38 38 40 45 47 49 53 55
38 46 39 52 49 56 72 83 88 63 72 87 84 90 86 91 82 108 104 109 77 23 16 23 14 11 8 7 9 10 10 14 17 20 25 28 30 33 36 39 42 44 46 47
Wind_Direction
109 90 99 107 135 141 151 166 176 167 169 176 167 170 183 184 181 183 185 188 192 194 207 201 219 217 221 228 223 229 236 241 244 239 240 238 224 255 254 256 233 262 267 252
102 82 76 85 104 130 165 164 176 180 175 176 181 183 188 190 184 185 192 190 198 199 212 206 210 211 217 218 226 227 227 228 236 247 234 249 253 255 223 258 259 260 243 267
76 92 87 86 101 109 119 176 179 180 181 183 177 181 187 192 185 188 191 203 196 201 201 211 214 211 215 223 224 239 239 232 236 232 245 236 243 258 261 262 240 241 244 245
62 71 78 80 79 80 91 154 184 187 190 180 184 187 189 188 188 194 197 198 199 201 215 206 211 215 215 223 232 226 230 231 236 248 247 247 256 262 246 240 256 243 242 256
58 63 58 72 66 66 83 116 174 193 195 193 195 188 196 198 197 200 198 204 204 212 209 210 210 215 222 224 223 227 249 232 234 240 239 245 248 255 251 241 266 245 242 259
57 54 60 65 56 63 73 85 96 185 199 196 204 213 206 210 215 215 217 221 209 210 217 217 217 217 219 224 230 227 229 233 243 244 246 249 251 249 241 252 250 243 243 258
54 57 59 59 60 64 57 61 66 86 203 208 187 237 230 247 219 247 229 226 228 227 234 221 221 223 223 228 229 228 230 235 235 238 240 243 240 249 243 252 248 247 248 253
44 45 59 56 60 54 61 59 60 60 60 80 176 240 255 248 245 252 256 262 255 251 248 244 244 226 229 233 233 233 234 233 235 238 240 245 248 250 250 256 258 256 253 259
70 59 55 49 53 51 59 57 59 68 62 64 75 80 83 82 94 239 248 253 256 256 256 238 254 229 246 235 237 235 236 236 238 243 251 240 245 250 254 255 253 252 260 261
24 33 37 35 15 45 86 64 53 77 55 59 60 59 52 59 41 13 353 325 41 304 269 266 254 260 251 254 236 252 241 240 242 237 238 242 242 246 248 252 255 251 255 255
13 39 30 28 1 35 41 33 45 156 43 38 53 50 39 37 33 21 353 324 287 282 280 287 285 276 267 257 252 250 252 245 248 241 242 246 249 243 245 248 250 252 252 254
17 17 29 19 21 335 22 165 2 70 22 42 35 335 10 6 357 350 347 334 309 313 291 283 292 296 307 288 271 265 262 257 251 256 256 256 254 254 246 249 253 251 259 253
27 16 11 18 25 11 314 40 241 17 291 7 259 343 343 354 242 262 339 331 310 303 258 315 293 306 289 293 302 272 271 262 260 259 256 259 260 259 256 255 263 252 254 255
29 15 12 15 8 10 12 356 6 327 345 355 343 347 279 338 316 319 335 289 333 322 325 272 308 320 256 274 266 286 272 265 258 256 255 256 256 255 256 259 261 262 263 263
31 358 359 9 4 0 360 355 349 338 346 283 325 351 320 341 294 334 314 313 325 317 321 322 310 316 310 307 282 285 270 262 261 254 250 253 251 252 253 254 255 258 259 260
347 348 357 3 355 350 356 356 351 341 340 341 346 324 339 337 305 332 326 325 323 321 322 320 321 318 310 310 285 277 272 258 259 260 259 255 251 248 249 250 250 252 253 256
344 359 351 341 345 343 339 357 334 342 334 339 341 331 345 329 327 328 339 328 327 331 320 318 315 312 313 277 270 266 261 256 252 255 254 258 255 247 245 246 248 249 251 253
332 334 327 350 358 339 341 349 338 338 331 329 333 339 343 340 321 325 324 327 326 335 322 323 322 307 281 273 268 263 253 255 249 250 248 252 257 248 250 242 243 246 248 250
325 324 322 335 339 337 342 342 337 333 339 329 329 336 341 327 328 324 326 325 329 332 325 323 287 282 275 268 262 258 253 247 244 247 245 246 251 256 249 246 240 242 245 247
326 327 327 336 327 336 342 347 334 332 335 337 341 334 331 332 330 327 330 329 326 329 331 318 284 280 276 268 261 253 247 242 242 238 239 243 243 248 254 248 242 241 242 244
306 317 315 343 327 342 333 345 332 332 333 331 337 328 328 333 334 328 328 331 326 329 306 296 291 286 277 265 258 257 252 242 236 235 236 238 241 242 252 247 241 239 241 242
308 314 321 338 313 331 346 343 330 335 332 330 337 335 329 330 337 330 333 327 333 331 308 308 306 297 290 278 261 249 239 242 238 232 234 234 235 238 244 242 238 238 240 242
317 304 314 314 336 329 322 326 326 333 330 330 333 333 342 333 330 330 332 333 334 327 319 315 310 304 293 280 271 255 240 226 232 232 232 232 233 236 240 239 234 235 238 241
314 304 327 318 316 318 329 328 336 336 330 338 331 332 325 326 330 331 329 335 335 338 323 319 318 311 293 283 275 260 239 211 222 229 230 231 233 238 238 233 234 234 237 241
305 296 328 337 339 321 333 325 333 329 330 328 337 330 338 341 337 331 333 336 337 327 325 325 328 326 312 290 270 244 211 193 203 217 228 231 235 234 232 229 233 234 235 239
299 313 308 334 318 317 321 322 322 327 330 326 327 332 334 336 337 337 334 335 340 326 334 327 335 337 331 310 214 171 164 177 199 219 228 227 229 229 228 228 231 234 235 238
308 309 319 324 330 325 320 324 328 334 327 331 335 334 333 326 332 337 333 338 339 324 326 324 340 1 34 74 119 145 181 195 199 212 214 219 224 224 225 228 233 236 239 242